• In Germany
  • List of Countries
  • For 7 days
  • Water Temperature
  • Satellite Maps
  • Weather Map
  • Weather Widgets
  • user-avatar
    Login

    Hourly Weather Lubumbashi

    Today, 20 September, Thursday

    Time Temperature Precipitation Wind Pressure Humidity
    00:00 +34°C° 0.1 mm 3 mps 719 mmHg 45%
    01:00 +32°C° 0.1 mm 2 mps 719 mmHg 47%
    02:00 +31°C° 0 mm 2 mps 718 mmHg 52%
    03:00 +31°C° 0.7 mm 2 mps 718 mmHg 55%
    04:00 +30°C° 0.7 mm 2 mps 719 mmHg 58%
    05:00 +30°C° 0.7 mm 2 mps 719 mmHg 61%
    06:00 +30°C° 0 mm 2 mps 719 mmHg 59%
    07:00 +31°C° 0 mm 2 mps 719 mmHg 56%
    08:00 +32°C° 0 mm 2 mps 720 mmHg 53%
    09:00 +34°C° 0 mm 2 mps 720 mmHg 49%
    10:00 +35°C° 0 mm 2 mps 720 mmHg 45%
    11:00 +36°C° 0 mm 2 mps 720 mmHg 41%
    12:00 +37°C° 0 mm 2 mps 719 mmHg 40%
    13:00 +36°C° 0 mm 1 mps 718 mmHg 38%
    14:00 +39°C° 0 mm 3 mps 718 mmHg 31%
    15:00 +38°C° 0 mm 3 mps 718 mmHg 31%
    16:00 +38°C° 0 mm 3 mps 717 mmHg 32%
    17:00 +38°C° 0 mm 2 mps 717 mmHg 32%
    18:00 +37°C° 0 mm 2 mps 717 mmHg 34%
    19:00 +37°C° 0 mm 2 mps 718 mmHg 36%
    20:00 +36°C° 0 mm 2 mps 718 mmHg 38%
    21:00 +35°C° 0 mm 2 mps 718 mmHg 40%
    22:00 +35°C° 0 mm 3 mps 718 mmHg 42%
    23:00 +34°C° 0 mm 3 mps 718 mmHg 43%

    Tomorrow, 21 September, Friday

    Time Temperature Precipitation Wind Pressure Humidity
    00:00 +34°C° 0 mm 3 mps 718 mmHg 45%
    01:00 +32°C° 0 mm 2 mps 718 mmHg 46%
    02:00 +32°C° 0 mm 2 mps 718 mmHg 48%
    03:00 +31°C° 0 mm 2 mps 717 mmHg 49%
    04:00 +31°C° 0 mm 2 mps 717 mmHg 51%
    05:00 +30°C° 0 mm 1 mps 717 mmHg 52%
    06:00 +31°C° 0 mm 2 mps 718 mmHg 51%
    07:00 +32°C° 0 mm 2 mps 718 mmHg 49%
    08:00 +32°C° 0 mm 2 mps 719 mmHg 48%
    09:00 +35°C° 0 mm 2 mps 719 mmHg 44%
    10:00 +36°C° 0 mm 2 mps 719 mmHg 40%
    11:00 +38°C° 0 mm 2 mps 719 mmHg 37%
    12:00 +39°C° 0 mm 2 mps 719 mmHg 34%
    13:00 +39°C° 0 mm 1 mps 718 mmHg 30%
    14:00 +40°C° 0 mm 1 mps 717 mmHg 27%
    15:00 +37°C° 0 mm 0 mps 717 mmHg 27%
    16:00 +37°C° 0 mm 0 mps 716 mmHg 27%
    17:00 +37°C° 0 mm 0 mps 716 mmHg 27%
    18:00 +39°C° 0 mm 1 mps 716 mmHg 29%
    19:00 +38°C° 0 mm 2 mps 716 mmHg 32%
    20:00 +37°C° 0 mm 3 mps 716 mmHg 34%
    21:00 +35°C° 0 mm 4 mps 717 mmHg 41%
    22:00 +34°C° 0 mm 5 mps 717 mmHg 48%
    23:00 +33°C° 0 mm 5 mps 717 mmHg 55%

    Day after tomorrow, 22 September, Saturday

    Time Temperature Precipitation Wind Pressure Humidity
    00:00 +32°C° 0 mm 5 mps 717 mmHg 57%
    01:00 +32°C° 0 mm 5 mps 717 mmHg 58%
    02:00 +30°C° 0 mm 4 mps 717 mmHg 60%
    03:00 +30°C° 0 mm 4 mps 717 mmHg 61%
    04:00 +30°C° 0 mm 4 mps 718 mmHg 62%
    05:00 +29°C° 0 mm 4 mps 718 mmHg 63%
    06:00 +29°C° 1.1 mm 4 mps 719 mmHg 65%
    07:00 +29°C° 1.1 mm 4 mps 719 mmHg 67%
    08:00 +29°C° 1.1 mm 5 mps 720 mmHg 68%
    09:00 +29°C° 0.2 mm 5 mps 720 mmHg 64%
    10:00 +30°C° 0.2 mm 5 mps 720 mmHg 59%
    11:00 +32°C° 0.2 mm 5 mps 720 mmHg 55%
    12:00 +34°C° 0 mm 4 mps 720 mmHg 47%
    13:00 +35°C° 0 mm 3 mps 719 mmHg 40%
    14:00 +37°C° 0 mm 2 mps 718 mmHg 33%
    15:00 +37°C° 0 mm 2 mps 718 mmHg 33%
    16:00 +37°C° 0 mm 2 mps 717 mmHg 33%
    17:00 +37°C° 0 mm 2 mps 717 mmHg 33%
    18:00 +36°C° 0 mm 2 mps 717 mmHg 36%
    19:00 +35°C° 0 mm 3 mps 718 mmHg 40%
    20:00 +34°C° 0 mm 3 mps 718 mmHg 43%
    21:00 +33°C° 0 mm 3 mps 718 mmHg 46%
    22:00 +32°C° 0 mm 2 mps 719 mmHg 48%
    23:00 +31°C° 0 mm 1 mps 719 mmHg 50%

    23 September, Sunday

    Time Temperature Precipitation Wind Pressure Humidity
    00:00 +31°C° 0.1 mm 1 mps 719 mmHg 51%
    01:00 +30°C° 0.1 mm 1 mps 718 mmHg 53%
    02:00 +30°C° 0.1 mm 1 mps 718 mmHg 54%
    03:00 +30°C° 0 mm 1 mps 718 mmHg 54%
    04:00 +29°C° 0 mm 2 mps 717 mmHg 55%
    05:00 +29°C° 0 mm 2 mps 717 mmHg 55%
    06:00 +30°C° 0 mm 2 mps 718 mmHg 53%
    07:00 +31°C° 0 mm 2 mps 719 mmHg 51%
    08:00 +31°C° 0 mm 2 mps 720 mmHg 49%
    09:00 +33°C° 0 mm 1 mps 720 mmHg 44%
    10:00 +35°C° 0 mm 1 mps 720 mmHg 40%
    11:00 +36°C° 0 mm 1 mps 720 mmHg 35%
    12:00 +37°C° 0 mm 1 mps 719 mmHg 33%
    13:00 +39°C° 0 mm 2 mps 718 mmHg 30%
    14:00 +40°C° 0 mm 2 mps 718 mmHg 27%
    15:00 +40°C° 0 mm 3 mps 717 mmHg 28%
    16:00 +40°C° 0 mm 3 mps 717 mmHg 28%
    17:00 +39°C° 0 mm 3 mps 717 mmHg 28%
    18:00 +38°C° 0 mm 3 mps 717 mmHg 31%
    19:00 +38°C° 0 mm 3 mps 718 mmHg 33%
    20:00 +37°C° 0 mm 4 mps 718 mmHg 36%
    21:00 +35°C° 0.8 mm 4 mps 718 mmHg 40%
    22:00 +34°C° 0.8 mm 4 mps 718 mmHg 44%
    23:00 +33°C° 0.8 mm 4 mps 718 mmHg 48%

    24 September, Monday

    Time Temperature Precipitation Wind Pressure Humidity
    00:00 +33°C° 0.3 mm 3 mps 718 mmHg 50%
    01:00 +31°C° 0.3 mm 2 mps 717 mmHg 51%
    02:00 +31°C° 0.3 mm 1 mps 717 mmHg 53%
    03:00 +31°C° 0 mm 1 mps 717 mmHg 54%
    04:00 +31°C° 0 mm 1 mps 717 mmHg 55%
    05:00 +31°C° 0 mm 1 mps 717 mmHg 56%
    06:00 +31°C° 0 mm 1 mps 718 mmHg 52%
    07:00 +32°C° 0 mm 1 mps 718 mmHg 49%
    08:00 +34°C° 0 mm 2 mps 719 mmHg 46%
    09:00 +35°C° 0 mm 2 mps 719 mmHg 42%
    10:00 +37°C° 0 mm 2 mps 719 mmHg 38%
    11:00 +38°C° 0 mm 3 mps 719 mmHg 34%
    12:00 +39°C° 0 mm 2 mps 718 mmHg 31%
    13:00 +40°C° 0 mm 2 mps 717 mmHg 29%
    14:00 +41°C° 0 mm 1 mps 716 mmHg 27%
    15:00 +40°C° 0 mm 1 mps 716 mmHg 27%
    16:00 +40°C° 0 mm 1 mps 716 mmHg 28%
    17:00 +37°C° 0 mm 0 mps 716 mmHg 28%
    18:00 +39°C° 0 mm 1 mps 716 mmHg 31%
    19:00 +37°C° 0 mm 1 mps 716 mmHg 33%
    20:00 +36°C° 0 mm 1 mps 716 mmHg 35%
    21:00 +36°C° 0 mm 3 mps 717 mmHg 40%
    22:00 +35°C° 0 mm 4 mps 717 mmHg 44%
    23:00 +33°C° 0 mm 6 mps 717 mmHg 48%

    25 September, Tuesday

    Time Temperature Precipitation Wind Pressure Humidity
    00:00 +33°C° 0.1 mm 5 mps 717 mmHg 49%
    01:00 +33°C° 0.1 mm 5 mps 717 mmHg 50%
    02:00 +33°C° 0.1 mm 4 mps 717 mmHg 50%
    03:00 +32°C° 0 mm 4 mps 717 mmHg 51%
    04:00 +32°C° 0 mm 4 mps 717 mmHg 51%
    05:00 +32°C° 0 mm 4 mps 717 mmHg 52%
    06:00 +32°C° 0 mm 4 mps 718 mmHg 52%
    07:00 +32°C° 0 mm 5 mps 718 mmHg 53%
    08:00 +32°C° 0 mm 5 mps 719 mmHg 54%
    09:00 +34°C° 0 mm 5 mps 719 mmHg 50%
    10:00 +35°C° 0 mm 5 mps 719 mmHg 46%
    11:00 +37°C° 0 mm 5 mps 719 mmHg 42%
    12:00 +37°C° 0 mm 5 mps 719 mmHg 40%
    13:00 +38°C° 0 mm 4 mps 718 mmHg 37%
    14:00 +38°C° 0 mm 3 mps 717 mmHg 35%
    15:00 +38°C° 0 mm 3 mps 717 mmHg 35%
    16:00 +38°C° 0 mm 3 mps 717 mmHg 36%
    17:00 +38°C° 0 mm 3 mps 717 mmHg 36%
    18:00 +37°C° 0.2 mm 3 mps 717 mmHg 38%
    19:00 +36°C° 0.2 mm 3 mps 717 mmHg 40%
    20:00 +36°C° 0.2 mm 3 mps 717 mmHg 43%
    21:00 +35°C° 0.1 mm 3 mps 718 mmHg 46%
    22:00 +34°C° 0.1 mm 3 mps 718 mmHg 48%
    23:00 +32°C° 0.1 mm 2 mps 718 mmHg 51%
    Show more